Miscellaneous Local Product
Issued by NWS Hastings, NE

Home | Current Version | Previous Version | Text Only | Print | Product List | Glossary On
Versions: 1 2 3 4 5 6 7 8 9 10 11 12 13 14 15 16 17 18 19 20 21 22 23 24 25 26 27 28 29 30 31 32 33 34 35 36 37 38 39 40 41 42 43 44 45 46 47 48 49 50
000
AXUS43 KGID 310602
MISGRI

GID CWA HOURLY WEATHER ROUNDUP
NATIONAL WEATHER SERVICE HASTINGS NE
100 AM CDT SUN AUG 31 2014

NOTE: "FAIR" INDICATES FEW OR NO CLOUDS BELOW 12,000 FEET WITH NO
SIGNIFICANT WEATHER AND/OR OBSTRUCTIONS TO VISIBILITY.

...SOUTH CENTRAL NEBRASKA...

CITY           SKY/WX    TMP DP  RH WIND       PRES   REMARKS
GRAND ISLAND   FAIR      71  63  75 S13       29.83S
HASTINGS       FAIR      70  59  68 S8        29.84F
KEARNEY        FAIR      70  61  73 S13       29.83F
ORD            CLEAR     69  64  84 SE6       29.80S
YORK           FAIR      68 N/A N/A S9        29.84F
AURORA         FAIR      71  64  78 S12       29.83S
LEXINGTON      CLEAR     73  59  63 S13G18    29.82F
HOLDREGE       FAIR      70  59  69 S9        29.84S
HEBRON         FAIR      68  61  78 SE3       29.85S

...NEBRASKA PANHANDLE...

CITY           SKY/WX    TMP DP  RH WIND       PRES   REMARKS
CHADRON        MOCLDY    66  55  67 SW9       29.82R
ALLIANCE       CLOUDY    64  54  69 S7        29.84F
SCOTTSBLUFF    MOCLDY    62  54  74 N7        29.87R
SIDNEY         CLOUDY    70  48  45 SW3       29.89F

...WESTERN AND NORTH CENTRAL NEBRASKA...

CITY           SKY/WX    TMP DP  RH WIND       PRES   REMARKS
VALENTINE      CLOUDY    73  62  68 SW9       29.76F
AINSWORTH      CLOUDY    71  63  76 SW13      29.78F
ONEILL         CLEAR     71  66  85 S13       29.78F
BROKEN BOW     CLEAR     70  60  70 S8        29.81F
IMPERIAL       MOCLDY    71  57  61 W8        29.85F
NORTH PLATTE   MOCLDY    72  56  57 VRB3      29.84R
MCCOOK         PTCLDY    73  54  51 S13       29.83S

...EASTERN NEBRASKA...

CITY           SKY/WX    TMP DP  RH WIND       PRES   REMARKS
NORFOLK        FAIR      69  63  81 SE7       29.81F
SO SIOUX CITY  FAIR      64  62  93 SE8       29.83F
TEKAMAH        FAIR      66  64  93 SE6       29.83F
COLUMBUS       FAIR      70  63  78 S7        29.83F
ALBION         FAIR      67  63  87 SE6       29.82S
OMAHA EPPLEY   FAIR      71  64  78 S8        29.85F
OFFUTT AFB     FAIR      67  67 100 E5        29.85S
MILLARD        FAIR      70  65  85 SE3       29.85S
LINCOLN        FAIR      70  64  81 S7        29.85S
NEBRASKA CITY  FAIR      69  69  99 S7        29.86F
BEATRICE       FAIR      71  65  80 SE7       29.85F
FALLS CITY     FAIR      70  66  87 SE7       29.86F

...NORTHERN KANSAS...

CITY           SKY/WX    TMP DP  RH WIND       PRES   REMARKS
GOODLAND       MOCLDY    74  56  53 SW17G23   29.94R
HILL CITY      FAIR      74  56  53 S8        29.86R
NORTON         CLEAR     73  54  49 S10G16    29.84S
PHILLIPSBURG   CLEAR     73  57  56 SE8       29.84F HAZE
SMITH CENTER   PTCLDY    72  59  64 SE9       29.85F
BELOIT         CLEAR     72  61  68 SE6       29.84S
HAYS           FAIR      75  55  50 S15       29.86F
RUSSELL        FAIR      74  60  61 S14       29.85F
CONCORDIA      FAIR      72  61  68 S13       29.85S
SALINA         FAIR      71  59  65 S5        29.86F
TOPEKA         FAIR      74  67  78 E5        29.88S



USA.gov is the U.S. government's official web portal to all federal, state and local government web resources and services.